Probability
0 0 0 1 4 5 4 2 1 0 0 0 0 0 0 0 0 0 0 0 0 0 0 0 0 0 0 0 0 0 0 0 0 0 0 0 0 0 0 0 0 0 0
0 0 0 1 3 4 4 2 1 0 0 0 0 0 0 0 0 0 0 0 0 0 0 0 0 0 0 0 0 0 0 0 0 0 0 0 0 0 0 0 0 0 0
0 0 0 1 2 2 3 2 1 0 0 0 0 0 0 0 0 0 0 0 0 0 0 0 0 0 0 0 0 0 0 0 0 0 0 0 0 0 0 0 0 0 0
0 0 0 0 0 1 2 2 1 0 0 0 0 0 0 0 0 0 0 0 0 0 0 0 0 0 0 0 0 0 0 0 0 0 0 0 0 0 0 0 0 0 0
0 0 0 0 0 0 1 2 1 0 0 0 0 0 0 0 0 0 0 0 0 0 0 0 0 0 0 0 0 0 0 0 0 0 0 0 0 0 0 0 0 0 0
0 0 0 0 0 0 1 1 1 0 0 0 0 0 0 0 0 0 0 0 0 0 0 0 0 0 0 0 0 0 0 0 0 0 0 0 0 0 0 0 0 0 0
0 0 0 0 0 0 0 0 0 0 0 0 0 0 0 0 0 0 0 0 0 0 0 0 0 0 0 0 0 0 0 0 0 0 0 0 0 0 0 0 0 0 0
0 0 0 0 0 0 0 0 0 0 0 0 0 0 0 0 0 0 0 0 0 0 0 0 0 0 0 0 0 0 0 0 0 0 0 0 0 0 0 0 0 0 0
0 0 0 0 0 1 1 0 0 0 0 0 0 0 0 0 0 0 0 0 0 0 0 0 0 0 0 0 0 0 0 0 0 0 0 0 0 0 0 0 0 0 0
0 0 0 0 1 2 2 1 0 0 0 0 0 0 0 0 0 0 0 0 0 0 0 0 0 0 0 0 0 0 0 0 0 0 0 0 0 0 0 0 0 0 0
0 0 0 0 1 2 3 2 1 0 0 0 0 0 0 0 0 0 0 0 0 0 0 0 0 0 0 0 0 0 0 0 0 0 0 0 0 0 0 0 0 0 0
0 0 0 0 0 1 2 3 2 0 0 0 0 0 0 0 0 0 0 0 0 0 0 0 0 0 0 0 0 0 0 0 0 0 0 0 0 0 0 0 0 0 0
0 0 0 0 0 0 1 2 1 0 0 0 0 0 0 0 0 0 0 0 0 0 0 0 0 0 0 0 0 0 0 0 0 0 0 0 0 0 0 0 0 0 0
0 0 0 0 0 0 0 0 0 0 0 0 0 0 0 0 0 0 0 0 0 0 0 0 0 0 0 0 0 0 0 0 0 0 0 0 0 0 0 0 0 0 0
0 0 0 0 0 0 0 0 0 0 0 0 0 0 0 0 0 0 0 0 0 0 0 0 0 0 0 0 0 0 0 0 0 0 0 0 0 0 0 0 0 0 0
0 0 0 0 0 0 0 0 0 0 0 0 0 0 0 0 0 0 0 0 0 0 0 0 0 0 0 0 0 0 0 0 0 0 0 0 0 0 0 0 0 0 0
0 0 0 0 0 0 0 0 0 0 0 0 0 0 0 0 0 0 0 0 0 0 0 0 0 0 0 0 0 0 0 0 0 0 0 0 0 0 0 0 0 0 0
0 0 0 0 0 0 0 0 0 0 0 0 0 0 0 0 0 0 0 0 0 0 0 0 0 0 0 0 0 0 0 0 0 0 0 0 0 0 0 0 0 0 0
0 0 0 0 0 0 0 0 0 0 0 0 0 0 0 0 0 0 0 0 0 0 0 0 0 0 0 0 0 0 0 0 0 0 0 0 0 0 0 0 0 0 0
0 0 0 0 0 0 0 0 0 0 0 0 0 0 0 0 0 0 0 0 0 0 0 0 0 0 0 0 0 0 0 0 0 0 0 0 0 0 0 0 0 0 0
0 0 0 0 0 0 0 0 0 0 0 0 0 0 0 0 0 0 0 0 0 0 0 0 0 0 0 0 0 0 0 0 0 0 0 0 0 0 0 0 0 0 0
0 0 0 0 0 0 0 0 0 0 0 0 0 0 0 0 0 0 0 0 0 0 0 0 0 0 0 0 0 0 0 0 0 0 0 0 0 0 0 0 0 0 0
0 0 0 0 0 0 0 0 0 0 0 0 0 0 0 0 0 0 0 0 0 0 0 0 0 0 0 0 0 0 0 0 0 0 0 0 0 0 0 0 0 0 0
0 0 0 0 0 0 0 0 0 0 0 0 0 0 0 0 0 0 0 0 0 0 0 0 0 0 0 0 0 0 0 0 0 0 0 0 0 0 0 0 0 0 0
0 0 0 0 0 0 0 0 0 0 0 0 0 0 0 0 0 0 0 0 0 0 0 0 0 0 0 0 0 0 0 0 0 0 0 0 0 0 0 0 0 0 0
0 0 0 0 0 0 0 0 0 0 0 0 0 0 0 0 0 0 0 0 0 0 0 0 0 0 0 0 0 0 0 0 0 0 0 0 0 0 0 0 0 0 0
Wind_Speed
5 5 6 7 7 7 9 10 9 7 7 5 5 5 4 3 3 2 3 3 4 4 4 4 3 3 3 3 3 3 4 2 2 3 3 3 3 3 3 3 4 5 5
2 4 5 6 8 9 9 9 9 9 7 5 4 3 4 3 3 2 3 3 3 4 4 4 3 3 3 4 3 3 2 1 2 2 2 1 2 3 3 3 3 4 4
6 5 6 7 7 9 9 9 9 9 7 6 5 4 4 3 2 2 2 2 3 4 4 4 4 3 3 3 3 3 3 2 1 2 2 2 1 1 2 2 3 3 3
4 5 5 6 7 7 7 8 9 8 8 8 8 8 6 5 4 3 2 3 3 4 4 4 4 3 3 3 3 2 2 3 1 1 2 1 2 2 1 2 2 3 3
4 4 5 6 5 6 7 7 8 8 8 7 8 8 5 4 4 4 4 3 2 3 3 4 4 3 3 3 3 2 2 2 2 1 1 2 2 1 1 1 3 3 2
2 3 3 4 3 4 5 6 7 7 8 8 7 7 7 7 7 6 5 3 2 2 2 3 3 3 3 3 3 2 3 2 2 1 1 1 1 0 1 0 2 2 2
2 3 4 4 4 5 5 6 7 7 7 8 7 7 7 7 8 7 6 5 3 2 3 3 3 3 3 3 3 3 2 2 2 2 1 1 0 0 1 1 1 2 2
2 3 3 4 4 5 6 6 7 7 7 7 7 6 6 5 5 5 5 5 4 3 4 3 3 3 3 3 3 2 2 2 2 2 1 1 0 0 0 1 1 1 2
1 2 2 2 3 4 5 6 7 7 7 7 6 6 6 5 5 5 4 3 3 4 4 4 4 3 3 3 3 3 2 2 2 2 1 1 0 0 0 0 1 1 1
1 1 2 2 2 2 3 4 5 6 6 6 6 5 5 5 5 5 4 4 4 4 5 4 4 4 3 3 3 3 2 3 2 1 2 1 0 0 0 0 0 0 1
1 1 1 1 2 2 3 3 4 5 5 6 5 5 5 5 5 5 5 4 4 4 5 5 5 4 4 4 4 3 3 3 2 1 2 1 1 0 0 0 0 0 1
1 2 2 2 2 2 2 3 3 4 4 5 5 5 5 5 5 5 4 4 4 4 4 4 4 5 4 4 4 4 3 3 3 2 2 1 1 0 0 0 1 1 1
2 3 2 2 2 2 2 2 3 3 4 5 5 5 5 5 5 5 4 4 4 4 3 3 4 4 4 4 4 4 3 3 3 3 3 2 2 1 1 1 1 1 1
2 2 2 2 1 1 2 2 2 2 3 4 5 4 4 4 4 4 4 4 4 4 3 3 3 3 3 3 3 4 3 3 2 2 2 2 3 3 3 2 2 2 2
1 1 1 1 1 1 1 2 2 2 3 4 4 4 4 4 4 4 4 4 3 3 3 3 3 2 3 3 4 4 3 3 2 2 2 2 3 4 3 2 2 2 2
1 1 1 1 0 0 1 1 2 2 3 4 4 3 4 4 4 4 4 4 3 3 3 3 3 2 2 4 5 4 3 3 3 2 2 2 3 3 5 5 4 4 3
2 1 1 1 1 1 1 1 1 2 3 3 3 4 4 4 4 4 4 4 3 3 2 2 2 2 2 4 4 4 2 3 3 3 2 2 2 3 2 4 5 5 6
2 2 1 1 0 1 1 2 2 2 3 3 3 4 4 4 4 4 4 3 3 3 2 2 2 2 2 3 3 3 2 2 2 3 3 3 3 3 3 3 2 3 4
2 1 1 0 1 1 2 3 3 3 3 3 2 3 4 4 4 4 4 3 3 2 2 2 2 2 2 3 3 3 1 1 2 3 3 3 3 5 5 2 3 3 4
2 2 2 2 2 2 2 3 3 2 2 1 2 2 3 4 4 4 3 3 2 2 2 1 1 1 2 3 3 3 1 2 2 2 2 4 4 6 5 2 2 3 4
3 3 3 2 2 2 3 3 2 1 1 1 2 2 3 3 3 3 3 3 2 2 2 1 1 1 2 3 4 4 1 2 2 2 2 3 5 6 5 3 3 5 4
4 4 3 3 2 2 2 2 1 1 2 2 2 2 2 2 3 3 3 3 3 2 2 1 1 1 2 3 4 5 4 3 2 3 2 3 6 6 6 4 4 6 4
3 3 3 3 3 2 2 2 1 2 2 3 3 2 2 2 2 3 3 2 2 2 1 1 1 1 1 2 4 4 4 4 2 2 4 4 5 4 4 5 5 4 2
3 3 3 3 3 3 3 1 1 2 3 3 2 2 2 2 2 2 2 2 2 2 2 2 2 1 1 2 2 2 2 3 3 2 3 4 4 3 3 3 3 2 2
2 2 2 2 2 3 3 3 2 2 2 2 2 2 2 1 1 1 1 1 2 3 2 2 2 2 2 3 4 2 2 2 2 1 0 1 1 1 1 2 2 2 2
2 2 3 3 3 3 3 3 2 1 2 2 2 1 1 1 1 1 1 1 1 2 2 2 2 2 4 5 5 5 4 4 2 1 1 1 1 2 2 2 2 2 2
Wind_Direction
213 183 171 164 160 162 164 164 156 154 152 149 150 146 151 144 127 120 120 125 129 126 125 120 116 111 108 106 109 109 88 61 57 66 44 22 25 41 39 32 36 35 29
180 171 164 164 169 171 170 165 161 160 162 157 154 146 140 136 126 119 108 113 127 127 126 123 124 119 112 107 110 113 94 64 29 79 82 41 7 13 18 22 39 30 23
192 181 174 177 174 175 173 170 168 164 160 146 132 123 108 101 113 129 128 118 128 121 118 122 123 124 125 132 135 127 115 122 21 43 111 133 191 322 343 10 25 23 21
192 180 174 177 184 183 170 165 164 162 158 155 155 156 159 161 167 157 141 121 123 121 124 128 126 130 130 135 144 108 112 126 118 35 40 81 145 150 314 333 360 4 8
188 177 174 177 176 170 167 164 160 159 158 161 164 161 160 151 137 136 131 131 123 124 131 134 130 134 133 134 132 114 108 114 128 123 80 55 41 69 144 289 329 346 345
177 166 153 141 138 145 154 156 158 162 162 163 164 165 163 156 150 153 154 155 139 129 134 132 131 133 135 140 139 129 116 109 104 100 100 119 115 88 118 213 314 320 320
151 142 140 145 147 149 157 161 162 164 166 163 166 166 165 162 165 165 167 161 154 155 162 145 140 139 139 136 128 123 120 122 118 121 108 91 97 140 150 143 286 305 306
144 149 162 162 160 162 164 163 167 166 163 164 166 161 157 161 167 168 167 167 166 165 157 150 145 143 138 131 124 121 127 118 120 119 120 108 81 90 143 166 172 311 313
161 152 151 155 160 170 175 171 168 164 163 164 160 158 157 159 160 156 156 160 159 154 149 149 148 146 140 137 133 130 132 123 124 129 120 111 96 82 40 135 172 176 268
100 125 143 148 158 168 165 157 163 163 159 157 159 157 158 158 155 151 157 159 158 154 152 154 153 149 144 141 136 132 133 126 126 129 120 118 120 77 52 85 2 203 210
128 107 91 103 99 104 128 138 146 149 152 153 150 149 153 152 151 153 159 159 154 154 160 163 158 156 155 151 145 146 144 140 135 133 135 156 136 111 67 74 89 257 204
92 91 84 78 83 93 111 133 142 150 154 151 148 150 149 147 150 155 161 154 152 156 161 161 159 162 162 159 160 164 160 158 162 169 160 182 157 146 231 175 220 237 228
51 56 72 81 89 94 102 121 140 149 148 143 141 143 147 151 154 155 154 152 151 150 153 156 163 165 163 163 170 168 169 173 181 183 184 193 176 211 229 221 231 245 259
54 46 50 43 50 74 96 109 112 130 136 138 141 146 151 153 152 148 147 149 147 147 152 157 164 166 167 170 170 168 168 172 183 190 197 203 203 213 222 229 230 236 249
23 11 9 19 40 52 65 87 102 106 125 135 141 149 143 141 141 140 140 138 141 147 150 149 152 161 169 175 171 172 172 175 179 194 211 220 229 231 232 234 228 227 238
312 320 318 320 25 78 89 91 97 105 121 133 139 138 141 142 140 138 139 138 138 142 142 150 158 172 187 188 191 183 176 182 187 206 232 243 250 255 261 266 261 249 244
307 291 274 243 224 188 142 134 127 111 119 129 131 138 140 141 142 142 141 141 142 140 141 150 164 185 197 202 202 201 187 184 197 211 227 248 253 264 265 272 277 275 275
328 314 298 282 27 103 107 109 110 114 117 127 136 141 144 144 143 144 146 147 148 151 152 161 174 181 203 208 209 211 201 190 205 215 218 232 247 258 252 247 264 269 273
317 320 324 98 85 86 107 112 109 113 115 122 139 149 151 150 148 150 151 150 146 146 154 161 166 175 217 225 222 218 190 203 225 231 227 229 235 258 262 247 255 277 287
9 16 32 70 76 61 93 111 116 118 130 145 152 150 149 151 155 157 149 139 140 148 147 148 162 189 220 233 236 231 205 213 235 241 245 245 247 259 267 234 230 261 276
20 32 47 61 63 66 95 106 110 126 131 122 124 133 142 149 151 146 139 137 135 129 134 146 194 225 234 240 247 246 225 210 220 239 251 254 262 268 272 265 236 260 276
27 37 47 47 45 57 97 105 107 85 91 100 104 118 129 140 135 133 134 134 138 140 149 156 218 251 256 256 255 255 254 246 213 228 243 252 269 279 283 282 281 288 295
32 41 49 49 37 38 75 108 80 80 95 98 100 104 110 118 128 139 145 142 152 157 175 186 214 247 268 273 272 269 269 270 247 239 254 263 276 283 287 290 293 295 280
37 43 53 51 28 19 34 51 71 87 100 109 109 111 110 115 123 136 152 162 173 178 193 204 220 239 258 263 266 264 271 276 272 261 270 281 292 300 296 290 297 294 275
34 45 48 44 26 22 23 23 48 93 102 112 112 109 110 118 113 122 166 185 200 195 195 205 210 209 236 260 266 256 239 236 237 199 206 256 287 288 288 295 289 279 285
41 38 34 32 22 26 23 16 21 76 111 105 103 110 111 111 108 99 40 329 280 261 256 256 248 250 264 279 280 279 279 278 255 185 201 245 253 262 275 284 286 283 280